Regional Weather Roundup
Issued by NWS Wakefield, VA

Home | Current Version | Previous Version | Graphics & Text | Print | Product List | Glossary On
Versions: 1 2 3 4 5 6 7 8 9 10 11 12 13 14 15 16 17 18 19 20 21 22 23 24 25 26 27
000
ASUS41 KAKQ 210515
RWRAKQ

REGIONAL WEATHER ROUNDUP
NATIONAL WEATHER SERVICE WAKEFIELD VA
100 AM EDT SAT OCT 21 2017

Note: "fair" indicates few or no clouds below 12,000 feet with no
significant weather and/or obstructions to visibility. * = Denotes
station may not report precipitation (e.g., rain,snow,etc.),
thunder or fog.

VAZ042-051-052>054-056-210600-
NORTHERN VIRGINIA

CITY           SKY/WX    TMP DP  RH WIND       PRES   REMARKS
WASH NATIONAL  CLEAR     59  51  75 S3        30.27R
DULLES         CLEAR     48  46  93 CALM      30.27R
FORT BELVOIR   CLEAR     49  47  95 CALM      30.27R
QUANTICO       CLEAR     53  51  93 NW7       30.28R
FREDERICKSBRG* CLEAR     50  50 100 CALM      30.27R
STAFFORD*      CLEAR     46  46 100 CALM      30.31R
WARRENTON      CLEAR     43  40  88 CALM      30.28R
CULPEPER*      CLEAR     46  43  90 CALM      30.29R
MANASSAS*      CLEAR     45  43  93 CALM      30.28R
LEESBURG*      CLEAR     48  46  93 CALM      30.28S
WINCHESTER     CLEAR     45  43  93 S3        30.28S
FRONT ROYAL*   CLEAR     46  45  93 MISG      30.28S
LURAY*         CLEAR     46  46 100 CALM      30.29S
$$

VAZ048-049-060>072-079>083-210600-
CENTRAL AND SOUTH CENTRAL VIRGINIA

CITY           SKY/WX    TMP DP  RH WIND       PRES   REMARKS
RICHMOND       CLEAR     55  53  93 CALM      30.27R
CHESTERFIELD*  NOT AVBL
PETERSBURG*    CLEAR    N/A N/A N/A CALM      30.27S
HANOVER        CLEAR     52  51  97 CALM      30.28R
TAPPAHANNOCK*  CLEAR    N/A N/A N/A CALM      30.27S
QUINTON*       FAIR      52  52 100 CALM      30.26S
CHARLOTTSVILLE CLEAR     55  52  89 CALM      30.29R
GORDONSVILLE*  CLEAR     50  50  99 CALM      30.28R
ORANGE*        CLEAR     46  46 100 CALM      30.28S
LOUISA*        CLEAR     46  45  93 CALM      30.28R
BUMPASS*       FAIR      51  51 100 CALM      30.28R
FARMVILLE*     CLEAR     50  50 100 CALM      30.26S
CREWE*         FAIR      50  50 100 CALM      30.27S
FORT PICKETT*  FAIR      52  52 100 CALM      30.27S
CHASE CITY*    FAIR      53  53  99 CALM      30.26S
CLARKSVILLE*   FAIR      52  52 100 CALM      30.26S
SOUTH HILL*    CLEAR     52  51  99 CALM      30.32S
LAWRENCEVILLE* FAIR      52  51  95 CALM      30.26R
EMPORIA*       CLEAR     50  48  93 NW3       30.28R
$$

VAZ088>098-210600-
SOUTHEAST VIRGINIA

CITY           SKY/WX    TMP DP  RH WIND       PRES   REMARKS
NORFOLK        CLEAR     59  57  93 CALM      30.26R
VIRGINIA BEACH CLEAR     55  52  89 CALM      30.25S
NORFOLK NAVAL  CLEAR     57  55  93 CALM      30.27S
WEST POINT*    CLEAR     50  50 100 CALM      30.28S
SALUDA*        FAIR      53  53 100 CALM      30.26R
NEWPORT NEWS   FOG       52  52 100 CALM      30.26S VSB 1/2
LANGLEY AFB    CLEAR     56  56 100 CALM      30.25R FOG
FORT EUSTIS    CLEAR     56  53  88 CALM      30.23S
WILLIAMSBURG*  CLEAR     57  57 100 CALM      30.27S
HR EXEC AP*    NOT AVBL
FRANKLIN*      CLEAR     50  49  97 CALM      30.27S
US460-WAKEFLD  CLEAR     54  53  97 CALM      30.26S
$$

VAZ020-022-025-037-045-210600-
WEST CENTRAL AND SOUTHWEST VIRGINIA

CITY           SKY/WX    TMP DP  RH WIND       PRES   REMARKS
STAUNTON*      CLEAR     45  43  93 CALM      30.32S
WAYNESBORO*    CLEAR     48  47  96 CALM      30.31S
HOT SPRINGS VA CLEAR     57  44  63 CALM      30.35S
LYNCHBURG      CLEAR     50  48  93 CALM      30.28R
DANVILLE       CLEAR     49  49 100 CALM      30.28R
SOUTH BOSTON*  FAIR      48  46  95 CALM      30.27R
MARTINSVILLE   CLEAR     47  46  97 CALM      30.30S
ROANOKE        CLEAR     55  51  86 CALM      30.30S
BLACKSBURG     CLEAR     51  49  95 CALM      30.33S
DUBLIN*        CLEAR     51  49  92 CALM      30.32S
MARION*        CLEAR     47  43  85 CALM      30.33S FOG
HILLSVILLE*    CLEAR     55  42  62 CALM      30.30F
RICHLANDS*     FAIR      60 -15   4 SE3       30.28F
WISE*          CLEAR     55  45  67 CALM      30.29S
ABINGDON*      CLEAR     54  47  79 E5        30.27S
$$

MDZ021>025-VAZ099-100-210600-
SOUTHERN MARYLAND AND THE DELMARVA PENINSULA

CITY           SKY/WX    TMP DP  RH WIND       PRES   REMARKS
PATUXENT RIVER CLEAR     52  51  97 SW5       30.25S
BAY BRIDGE APT CLEAR     54  52  94 CALM      30.25S
LEONARDTOWN    NOT AVBL
DOVER          CLEAR     55  45  67 SW2       30.21R
GEORGETOWN     CLEAR     50  46  86 CALM      30.26R
EASTON         CLEAR     53  49  89 CALM      30.29S
CAMBRIDGE      CLEAR     50  48  93 CALM      30.25S
SALISBURY      CLEAR     48  47  96 CALM      30.26R
OCEAN CITY     CLEAR     50  49  96 NW5       30.26R
WALLOPS ISLAND CLEAR     53  51  93 CALM      30.26S
ACCOMACK*      CLEAR     52  51  98 CALM      30.26R
$$

NCZ012>017-030>032-210600-
NORTH CENTRAL AND EASTERN NORTH CAROLINA

CITY           SKY/WX    TMP DP  RH WIND       PRES   REMARKS
ROANOKE RAPIDS FAIR      52  52 100 CALM      30.26S
RALEIGH        CLEAR     53  53 100 CALM      30.27R
ELIZABETH CITY CLEAR     57  57 100 CALM      30.26R
AHOSKIE*       CLEAR     51  51 100 CALM      30.26S
EDENTON*       CLEAR     57  55  93 CALM      30.26S
CURRITUCK*     CLEAR     56  55  96 CALM      30.26S
KILL DEVIL HLS CLEAR     62  61  96 CALM      30.24S
MANTEO         FOG      N/A N/A N/A CALM      30.26S VSB 1/4
CAPE HATTERAS  CLEAR     60  59  96 NE3       30.25S
TARBORO*       NOT AVBL
GOLDSBORO      CLEAR     55  51  87 CALM      30.24R FOG
WASHINGTON     CLEAR     53  52  94 CALM      30.26S
GREENVILLE     CLEAR     54  54 100 CALM      30.26S FOG
NEW BERN       CLEAR     55  55 100 CALM      30.27R
WILMINGTON     CLEAR     56  54  93 CALM      30.25S
$$

VAZ048-210600-
ELSEWHERE

CITY           SKY/WX    TMP DP  RH WIND       PRES   REMARKS
HARRISBURG PA  CLEAR     48  46  93 CALM      30.26R
BALTIMORE      CLEAR     51  49  92 SW3       30.25S
ANNAPOLIS      CLEAR     56  55  97 CALM      30.25R
ANDREWS AFB    CLEAR     50  47  89 CALM      30.26R
PHILADELPHIA   CLEAR     57  45  64 W5        30.25R
HENDERSON NC   CLEAR     53  49  87 CALM      30.26F
GREENSBORO     CLEAR     55  51  86 CALM      30.26F
ROCKY MOUNT    CLEAR     51  51 100 CALM      30.26S FOG
$$

VAZ100-210600-
MARINE

STATION/POSITION TIME  TEMP    WIND        PRES    WAVE   SWELL
                       AIR SEA DIR/SP/G            HT/PER HT/PER
                 (UTC) (F)     (DEG/KT/KT) (MB)    (FT/S) (FT/S)
BRANDYWINE LGT   0436   68     360/ 11/ 12 1024.3R
CAPE MAY NJ      0442   60 65     CALM     1023.6R
LEWES DE         0448   60 66  270/  3/  3 1023.9R
15NM E FENWICK I 0450   68 67  290/  6/  6 1024.5R   2/ 9   2/ 9
OCEAN-CITY-INLET 0448   58 67  360/  3/  3 1024.8R
WACHAPREAGUE VA  0448   54 65     CALM     1024.6R
THOMAS POINT MD  0500   63 67  300/  2/  2   N/A
GOOSES REEF MD   0500   67 68   CALM  /  2 1023.9    0
COVE POINT MD    0448   63     310/  2/  3 1025.2R
SOLOMONS ISLAND  0448   60 69  310/  1/  2 1024.3R
BISHOPS HEAD MD  0448   64 66     CALM     1024.8R
PINEY POINT MD   0436          230/  2/  2   N/A
POTOMAC MD       0500   65 69  260/  6/  6 1024.1    0
CAMBRIDGE MD     0436   55 67              1025.1R
LEWISETTA VA     0448   58 65  250/  4/  4 1024.6R
RAPPAHANNOCK LGT 0436          170/  2/  3 1025.0S
STINGRAY PT      0500   65 69  290/  4/  6 1024.9    0
YORK RVR RNG VA  0448   66     270/  2/  2 1025.1R
YORKTOWN VA      0436   62 70  230/  2/  3 1024.3R
JAMESTOWN VA     0500      70  210/  2/  4   N/A     0
DOMINION TERM VA 0436   67     140/  4/  5 1024.7R
KIPTOPEKE VA     0436      68   10/  2/  2   N/A
CAPE HENRY VA    0436   66     210/  3/  3   N/A
WILLOUBY STN VA  0436   66     170/  4/  4 1024.5R
S CRANEY ISL VA  0436   64     220/  1/  2 1024.3S
CAPE HENRY BUOY  0430      70                N/A     2/ 8
1ST LANDING BUOY 0500   68 69              1024.5    1/ 5
CAPE CHARLES BUO 0451      70                N/A     2/ 9
64NM E OF VA BCH 0450   67 67  280/  2/  2 1024.8R   3/ 9   2/ 9
DUCK PIER NC     0436   67 70   40/  3/  3 1024.0S
44100 DUCK FRF   0405      71                N/A     2/ 7
44056 DUCK FRF   0430      70                N/A     2/ 8
OREGON INLET NC  0436   63 70     CALM     1024.3S
HATTERAS NC      0436   67 71   40/  4/  4 1024.2R
DIAMOND SHLS NC  0450   72 81   10/  8/ 10 1024.0S   3/ 8   3/ 8
CAPE LOOKOUT NC  0400   70      90/  2/  2 1023.9R
$$




USA.gov is the U.S. government's official web portal to all federal, state and local government web resources and services.